Tracking 28052 objects as of 21-Sep-2023
HD Live streaming from Space Station
objects crossing your sky now

SPACEBEE-164

Track SPACEBEE-164 now!
10-day predictions


NORAD ID: 55091
Int'l Code: 2023-001CL
Perigee: 493.5 km
Apogee: 512.7 km
Inclination: 97.5 °
Period: 94.5 minutes
Semi major axis: 6874 km
RCS: Unknown
Launch date: January 3, 2023
Source: United States (US)
Launch site: AIR FORCE EASTERN TEST RANGE (AFETR)
Your satellite tracking list
Your tracking list is empty




NASA's NSSDC Master Catalog

Two Line Element Set (TLE):
1 55091U 23001CL  23264.10348246  .00023589  00000-0  99272-3 0  9990
2 55091  97.4660 323.4666 0013952  34.1938 326.0194 15.23290430 39682
Source of the keplerian elements: AFSPC